Radiation Dose at Monitoring Post of Fukushima Daini Nuclear Power Station
Date,Time,MP-1(microSv/h),MP-2(microSv/h),MP-3(microSv/h),MP-4(microSv/h),MP-5(microSv/h),MP-6(microSv/h),MP-7(microSv/h),Wind Direction,Wind Velocity(m/s),Rain
2023/05/15,00:00,0.145,0.132,0.209,0.201,0.207,0.117,0.075,south-southeast,6.1,Yes
2023/05/15,00:10,0.148,0.132,0.209,0.201,0.208,0.116,0.076,south-southeast,5.9,No
2023/05/15,00:20,0.146,0.131,0.209,0.202,0.205,0.117,0.076,south-southeast,5.7,Yes
2023/05/15,00:30,0.147,0.132,0.207,0.201,0.209,0.118,0.076,south-southeast,6.7,Yes
2023/05/15,00:40,0.145,0.130,0.206,0.198,0.205,0.115,0.075,south-southeast,6.1,Yes
2023/05/15,00:50,0.145,0.131,0.204,0.197,0.205,0.116,0.076,south-southeast,9.2,Yes
2023/05/15,01:00,0.145,0.130,0.206,0.197,0.206,0.116,0.076,south-southeast,7.8,Yes
2023/05/15,01:10,0.146,0.131,0.205,0.199,0.207,0.116,0.076,south,7.7,Yes
2023/05/15,01:20,0.145,0.131,0.206,0.199,0.208,0.116,0.076,south,6.4,Yes
2023/05/15,01:30,0.145,0.131,0.207,0.201,0.207,0.115,0.076,south,7.7,Yes
2023/05/15,01:40,0.144,0.131,0.207,0.198,0.208,0.116,0.076,south,7.3,Yes
2023/05/15,01:50,0.145,0.130,0.206,0.199,0.207,0.116,0.075,south,7.8,Yes
2023/05/15,02:00,0.146,0.130,0.205,0.198,0.207,0.116,0.076,south,6.4,Yes
2023/05/15,02:10,0.144,0.130,0.205,0.198,0.205,0.116,0.075,south,6.8,Yes
2023/05/15,02:20,0.145,0.130,0.206,0.200,0.209,0.115,0.076,south,7.5,Yes
2023/05/15,02:30,0.144,0.130,0.206,0.199,0.207,0.115,0.075,south-southwest,5.4,Yes
2023/05/15,02:40,0.145,0.130,0.206,0.199,0.207,0.115,0.075,south-southwest,5.7,Yes
2023/05/15,02:50,0.144,0.131,0.206,0.198,0.207,0.115,0.075,south,6.1,Yes
2023/05/15,03:00,0.143,0.130,0.204,0.199,0.206,0.115,0.075,south-southeast,5.2,Yes
2023/05/15,03:10,0.143,0.130,0.204,0.199,0.206,0.115,0.076,south,5.9,Yes
2023/05/15,03:20,0.145,0.130,0.205,0.197,0.206,0.115,0.076,south,5.8,Yes
2023/05/15,03:30,0.143,0.129,0.206,0.199,0.207,0.115,0.075,south-southwest,4.8,Yes
2023/05/15,03:40,0.145,0.130,0.206,0.197,0.206,0.115,0.076,south,5.4,Yes
2023/05/15,03:50,0.144,0.130,0.204,0.199,0.207,0.116,0.076,south-southeast,4.9,Yes
2023/05/15,04:00,0.144,0.129,0.205,0.199,0.207,0.114,0.075,south-southeast,4.7,Yes
2023/05/15,04:10,0.144,0.130,0.205,0.197,0.207,0.116,0.075,south-southeast,6.9,Yes
2023/05/15,04:20,0.144,0.129,0.205,0.198,0.206,0.115,0.075,south,6.6,Yes
2023/05/15,04:30,0.144,0.130,0.206,0.197,0.206,0.115,0.075,south-southeast,6.4,Yes
2023/05/15,04:40,0.144,0.128,0.205,0.198,0.207,0.116,0.076,south,7.6,Yes
2023/05/15,04:50,0.145,0.130,0.206,0.197,0.206,0.115,0.075,south,6.9,Yes
2023/05/15,05:00,0.145,0.131,0.204,0.198,0.207,0.115,0.075,south-southwest,5.3,Yes
2023/05/15,05:10,0.143,0.130,0.204,0.199,0.206,0.115,0.076,south-southwest,5.1,Yes
2023/05/15,05:20,0.144,0.130,0.206,0.198,0.207,0.115,0.075,south,4.9,Yes
2023/05/15,05:30,0.144,0.130,0.205,0.200,0.206,0.115,0.075,south,4.8,No
2023/05/15,05:40,0.144,0.128,0.205,0.198,0.208,0.116,0.075,south,4.4,No
2023/05/15,05:50,0.143,0.129,0.205,0.198,0.205,0.115,0.075,south,4.1,No
2023/05/15,06:00,0.143,0.129,0.205,0.196,0.206,0.115,0.074,south,4.6,No
2023/05/15,06:10,0.142,0.130,0.205,0.198,0.204,0.114,0.075,south,3.7,No
2023/05/15,06:20,0.143,0.128,0.204,0.198,0.206,0.115,0.074,south,4.2,No
2023/05/15,06:30,0.144,0.130,0.205,0.197,0.205,0.114,0.074,south,4.5,No
2023/05/15,06:40,0.145,0.129,0.204,0.197,0.207,0.115,0.075,south,6.5,Yes
2023/05/15,06:50,0.142,0.130,0.205,0.198,0.205,0.113,0.074,south-southwest,5.8,No
2023/05/15,07:00,0.145,0.129,0.205,0.197,0.207,0.115,0.074,south-southwest,6.7,Yes
2023/05/15,07:10,0.142,0.129,0.204,0.197,0.205,0.114,0.074,south-southwest,6.6,Yes
2023/05/15,07:20,0.144,0.129,0.205,0.198,0.208,0.116,0.073,south-southwest,6.0,No
2023/05/15,07:30,0.143,0.129,0.204,0.197,0.204,0.114,0.074,south-southwest,5.3,No
2023/05/15,07:40,0.144,0.128,0.204,0.198,0.207,0.114,0.075,south-southwest,5.5,No
2023/05/15,07:50,0.143,0.130,0.205,0.197,0.206,0.114,0.074,south,4.7,No
2023/05/15,08:00,0.143,0.128,0.204,0.198,0.206,0.115,0.073,south-southwest,5.0,No
2023/05/15,08:10,0.143,0.129,0.206,0.198,0.207,0.114,0.074,south-southwest,5.0,No
2023/05/15,08:20,0.142,0.129,0.204,0.197,0.205,0.114,0.074,south,4.8,No
2023/05/15,08:30,0.144,0.128,0.205,0.198,0.207,0.115,0.074,south-southwest,5.1,Yes
2023/05/15,08:40,0.142,0.129,0.204,0.197,0.206,0.115,0.074,south-southwest,4.4,Yes
2023/05/15,08:50,0.144,0.130,0.206,0.198,0.207,0.115,0.074,south-southwest,4.9,Yes
2023/05/15,09:00,0.142,0.130,0.205,0.197,0.206,0.115,0.074,south-southwest,4.1,Yes
2023/05/15,09:10,0.143,0.129,0.206,0.199,0.207,0.115,0.074,south-southwest,3.6,Yes
2023/05/15,09:20,0.144,0.130,0.205,0.198,0.208,0.116,0.075,south-southwest,5.0,Yes
2023/05/15,09:30,0.142,0.131,0.203,0.197,0.207,0.115,0.074,south,3.9,Yes
2023/05/15,09:40,-,-,-,-,-,-,-,-,-,-
2023/05/15,09:50,0.145,0.130,0.204,0.199,0.204,0.115,0.074,south-southwest,3.2,No
2023/05/15,10:00,0.143,0.129,0.205,0.196,0.207,0.114,0.074,south,4.6,No
2023/05/15,10:10,0.142,0.129,0.203,0.198,0.207,0.115,0.074,south-southeast,4.8,No
2023/05/15,10:20,0.144,0.129,0.206,0.200,0.205,0.116,0.074,south-southeast,4.8,Yes
2023/05/15,10:30,0.144,0.129,0.206,0.197,0.208,0.114,0.074,south-southeast,4.5,Yes
2023/05/15,10:40,0.143,0.130,0.205,0.199,0.208,0.116,0.075,south-southeast,5.2,Yes
2023/05/15,10:50,0.144,0.130,0.207,0.199,0.206,0.115,0.075,south-southeast,4.7,Yes
2023/05/15,11:00,0.143,0.130,0.204,0.198,0.209,0.115,0.075,southeast,5.2,Yes
2023/05/15,11:10,0.144,0.129,0.205,0.201,0.207,0.116,0.075,southeast,6.0,Yes
2023/05/15,11:20,0.144,0.130,0.207,0.199,0.207,0.116,0.075,east-southeast,7.3,No
2023/05/15,11:30,0.143,0.129,0.205,0.199,0.210,0.116,0.074,east-southeast,7.0,No
2023/05/15,11:40,0.145,0.130,0.207,0.200,0.207,0.116,0.075,southeast,5.7,No
2023/05/15,11:50,0.144,0.130,0.205,0.199,0.208,0.115,0.075,southeast,5.0,No
2023/05/15,12:00,0.143,0.130,0.205,0.198,0.208,0.116,0.075,southeast,6.1,Yes
2023/05/15,12:10,0.145,0.130,0.207,0.200,0.206,0.115,0.074,southeast,4.5,Yes
2023/05/15,12:20,0.144,0.130,0.206,0.198,0.208,0.115,0.075,southeast,4.5,Yes
2023/05/15,12:30,0.143,0.130,0.207,0.201,0.208,0.116,0.075,south-southeast,5.2,Yes
2023/05/15,12:40,0.144,0.131,0.206,0.199,0.207,0.116,0.075,southeast,3.7,Yes
2023/05/15,12:50,0.144,0.130,0.207,0.201,0.209,0.117,0.075,south-southeast,3.9,Yes
2023/05/15,13:00,0.145,0.131,0.206,0.201,0.206,0.115,0.074,south-southeast,5.5,Yes
2023/05/15,13:10,0.144,0.130,0.206,0.200,0.209,0.116,0.075,south,5.2,Yes
2023/05/15,13:20,0.144,0.130,0.207,0.199,0.208,0.115,0.075,south,4.0,Yes
2023/05/15,13:30,0.145,0.131,0.206,0.198,0.206,0.116,0.075,south-southwest,3.3,No
2023/05/15,13:40,0.144,0.129,0.207,0.200,0.208,0.116,0.075,south,2.9,No
2023/05/15,13:50,0.145,0.130,0.207,0.198,0.207,0.115,0.074,south-southwest,3.3,No
2023/05/15,14:00,0.145,0.130,0.205,0.199,0.207,0.115,0.074,south,2.8,No
2023/05/15,14:10,0.143,0.129,0.208,0.200,0.209,0.116,0.074,south-southwest,3.2,No
2023/05/15,14:20,0.144,0.131,0.206,0.199,0.208,0.115,0.074,south-southwest,2.7,No
2023/05/15,14:30,0.145,0.130,0.205,0.199,0.206,0.116,0.075,south-southeast,2.6,No
2023/05/15,14:40,0.144,0.130,0.206,0.200,0.205,0.116,0.075,south-southeast,2.9,No
2023/05/15,14:50,0.143,0.131,0.206,0.199,0.209,0.116,0.074,south-southeast,2.5,No
2023/05/15,15:00,0.145,0.130,0.206,0.200,0.209,0.115,0.074,south-southeast,2.0,No
2023/05/15,15:10,0.145,0.129,0.208,0.202,0.205,0.117,0.075,east-southeast,0.7,No
2023/05/15,15:20,0.144,0.130,0.205,0.198,0.207,0.116,0.074,southeast,1.8,No
2023/05/15,15:30,0.145,0.130,0.207,0.199,0.209,0.116,0.075,east-southeast,2.7,No
2023/05/15,15:40,0.145,0.131,0.208,0.201,0.208,0.116,0.075,east-southeast,2.6,No
2023/05/15,15:50,0.143,0.130,0.206,0.198,0.207,0.115,0.074,southeast,1.4,No
2023/05/15,16:00,0.145,0.130,0.208,0.201,0.210,0.116,0.075,east,1.8,No
2023/05/15,16:10,0.144,0.130,0.207,0.200,0.207,0.116,0.074,east-southeast,1.3,No
2023/05/15,16:20,0.144,0.130,0.208,0.200,0.209,0.115,0.074,east,1.0,No
2023/05/15,16:30,0.144,0.131,0.207,0.201,0.210,0.116,0.075,-,CALM,No
2023/05/15,16:40,0.144,0.131,0.206,0.200,0.206,0.116,0.075,east,0.8,No
2023/05/15,16:50,0.146,0.130,0.208,0.201,0.209,0.116,0.075,east,0.8,No
2023/05/15,17:00,0.144,0.131,0.207,0.200,0.207,0.116,0.075,northeast,1.0,No
2023/05/15,17:10,0.145,0.130,0.208,0.200,0.207,0.115,0.074,east-northeast,1.3,No
2023/05/15,17:20,0.144,0.131,0.207,0.201,0.209,0.118,0.075,east-northeast,1.4,No
2023/05/15,17:30,0.144,0.131,0.209,0.200,0.208,0.115,0.074,east-northeast,1.4,No
2023/05/15,17:40,0.145,0.132,0.206,0.202,0.210,0.117,0.075,northeast,1.7,No
2023/05/15,17:50,0.144,0.131,0.209,0.200,0.207,0.116,0.075,northeast,1.6,No
2023/05/15,18:00,0.145,0.130,0.207,0.202,0.210,0.116,0.074,northeast,1.6,No
2023/05/15,18:10,0.144,0.130,0.208,0.199,0.208,0.116,0.075,east-northeast,2.0,No
2023/05/15,18:20,0.146,0.131,0.207,0.203,0.209,0.117,0.074,east-northeast,1.3,No
2023/05/15,18:30,0.144,0.130,0.209,0.200,0.209,0.116,0.075,east,1.3,No
2023/05/15,18:40,0.144,0.131,0.206,0.201,0.207,0.116,0.075,northeast,0.6,No
2023/05/15,18:50,0.144,0.130,0.209,0.200,0.210,0.116,0.075,-,CALM,No
2023/05/15,19:00,0.145,0.130,0.207,0.201,0.207,0.117,0.074,northeast,0.8,No
2023/05/15,19:10,0.146,0.130,0.208,0.201,0.209,0.116,0.075,north-northwest,0.9,No
2023/05/15,19:20,0.145,0.130,0.208,0.201,0.207,0.116,0.074,northwest,1.4,Yes
2023/05/15,19:30,0.145,0.130,0.209,0.200,0.208,0.116,0.075,northwest,2.0,Yes
2023/05/15,19:40,0.145,0.129,0.207,0.202,0.207,0.117,0.075,northwest,2.2,No
2023/05/15,19:50,0.144,0.131,0.208,0.201,0.210,0.117,0.075,northwest,2.3,No
2023/05/15,20:00,0.146,0.130,0.208,0.202,0.208,0.117,0.075,north-northwest,2.3,Yes
2023/05/15,20:10,0.145,0.130,0.207,0.202,0.210,0.117,0.075,north-northwest,2.3,Yes
2023/05/15,20:20,0.146,0.131,0.208,0.202,0.209,0.116,0.074,north-northwest,1.7,No
2023/05/15,20:30,0.146,0.131,0.208,0.201,0.209,0.117,0.075,north-northwest,2.0,No
2023/05/15,20:40,0.145,0.131,0.208,0.201,0.208,0.117,0.076,north-northwest,2.5,Yes
2023/05/15,20:50,0.145,0.131,0.207,0.202,0.209,0.116,0.075,north-northwest,2.1,No
2023/05/15,21:00,0.145,0.131,0.208,0.200,0.207,0.117,0.075,north,1.5,No
2023/05/15,21:10,0.144,0.130,0.208,0.202,0.209,0.117,0.075,north-northeast,4.5,No
2023/05/15,21:20,0.146,0.131,0.208,0.200,0.209,0.117,0.075,north,3.1,No
2023/05/15,21:30,0.145,0.131,0.209,0.201,0.209,0.116,0.075,northwest,2.3,No
2023/05/15,21:40,0.146,0.131,0.207,0.200,0.208,0.117,0.076,northwest,3.0,No
2023/05/15,21:50,0.144,0.131,0.208,0.202,0.210,0.116,0.074,north-northwest,1.4,No
2023/05/15,22:00,0.146,0.131,0.207,0.201,0.207,0.118,0.075,north-northeast,1.8,No
2023/05/15,22:10,0.145,0.131,0.208,0.202,0.211,0.117,0.075,north-northwest,4.0,No
2023/05/15,22:20,0.146,0.130,0.208,0.201,0.210,0.116,0.074,north-northwest,4.9,No
2023/05/15,22:30,0.145,0.132,0.208,0.201,0.209,0.117,0.075,north-northwest,4.7,No
2023/05/15,22:40,0.147,0.131,0.209,0.202,0.208,0.116,0.075,north,3.5,No
2023/05/15,22:50,0.145,0.131,0.207,0.200,0.209,0.117,0.075,north-northwest,4.1,No
2023/05/15,23:00,0.146,0.131,0.209,0.202,0.209,0.118,0.075,north-northwest,4.5,No
2023/05/15,23:10,0.145,0.131,0.208,0.200,0.210,0.116,0.075,north-northwest,4.7,No
2023/05/15,23:20,0.146,0.131,0.207,0.202,0.208,0.117,0.075,north-northwest,5.0,No
2023/05/15,23:30,0.146,0.131,0.208,0.202,0.208,0.117,0.076,north-northwest,5.1,No
2023/05/15,23:40,0.146,0.131,0.208,0.203,0.210,0.117,0.075,north-northwest,4.9,No
2023/05/15,23:50,0.145,0.132,0.208,0.200,0.208,0.116,0.075,north-northwest,4.1,No
